Location: ????????
(48.4751°N, 37.6926°E)
Time: 20:10:18
(UTC+00:00)

Meteor 2-8 Rocket - Pass Details

Date: 20 January 2021
Orbit: 937 x 957 km, 82.5° (Epoch: 02 March)

Event Time Altitude Azimuth Distance (km) Brightness Sun altitude
Rises 16:29:49 0° 350° (N) 3,614 7.5 -22.9°
Reaches altitude 10° 16:32:19 10° 352° (N) 2,668 6.8 -23.3°
Maximum altitude 16:38:26 82° 80° (E) 958 4.3 -24.3°
Drops below altitude 10° 16:44:32 10° 169° (S) 2,662 6.7 -25.3°
Sets 16:47:01 0° 170° (S) 3,606 7.4 -25.7°
